Weather History for Cork, Ireland

Change the Weather History Date:

Monday, October 29, 2012

  Actual Average Record
Temperature  
Mean Temperature 44 °F -  
Max Temperature 50 °F 50 °F 59 °F (2011)
Min Temperature 39 °F 40 °F 33 °F (2008)
Degree Days  
Heating Degree Days 20    
Moisture  
Dew Point 42 °F    
Average Humidity 92    
Maximum Humidity 100    
Minimum Humidity 76    
Precipitation  
Precipitation 0.00 in 0.14 in - ()
Sea Level Pressure  
Sea Level Pressure 29.80 in    
Wind  
Wind Speed 9 mph ()    
Max Wind Speed 18 mph    
Max Gust Speed -    
Visibility 6.1 miles    
Events Fog , Rain    
Averages and records for this station are not official NWS values.
T = Trace of Precipitation, MM = Missing Value Source: Averaged Metar Reports

Daily Weather History Graph

Daily Weather History Graph

Search for Another Location

Airport:

Trip Planner

Search our weather history database for the weather conditions in past years. The results will help you decide how hot, cold, wet, or windy it might be!

Date:

Astronomy

Oct. 29, 2012 Rise Set
Actual Time 7:23 AM GMT 5:10 PM GMT
Civil Twilight 6:48 AM GMT 5:45 PM GMT
Nautical Twilight 6:08 AM GMT 6:25 PM GMT
Astronomical Twilight 5:29 AM GMT 7:04 PM GMT
Moon 4:50 PM GMT (10/29) 7:03 AM GMT (10/29)
Length of Visible Light 10h 57m
Length of Day
9h 47m
Full, 100% of the Moon is Illuminated
Oct 29
Full
Oct 29
Full
Nov 7
Last Quarter
Nov 13
New
Nov 20
First Quarter

Hourly Weather History & Observations

Time (GMT) Temp. Windchill Dew Point Humidity Pressure Visibility Wind Dir Wind Speed Gust Speed Precip Events Conditions
12:00 AM 46 °F - 45 °F 96% 29.73 in 9 mi West 8.9 mph - - Rain Light Rain Showers
12:00 AM 46.4 °F 42.4 °F 44.6 °F 93% 29.71 in 6.2 mi West 8.1 mph - N/A   Mostly Cloudy
12:30 AM 46.4 °F 42.9 °F 44.6 °F 93% 29.68 in 6.2 mi WNW 6.9 mph - N/A   Mostly Cloudy
1:00 AM 44.6 °F 40.7 °F 44.6 °F 100% 29.71 in 6.2 mi WNW 6.9 mph - N/A   Mostly Cloudy
1:30 AM 44.6 °F 40.2 °F 44.6 °F 100% 29.71 in 6.2 mi NW 8.1 mph - N/A   Mostly Cloudy
2:00 AM 44.6 °F 40.2 °F 42.8 °F 93% 29.68 in - NW 8.1 mph - N/A   Clear
2:30 AM 44.6 °F 40.7 °F 42.8 °F 93% 29.71 in - NW 6.9 mph - N/A   Clear
3:00 AM 42.8 °F 37.0 °F 42.8 °F 100% 29.71 in - NW 10.4 mph - N/A   Clear
3:30 AM 42.8 °F 37.5 °F 42.8 °F 100% 29.71 in - NW 9.2 mph - N/A   Clear
4:00 AM 42.8 °F 37.0 °F 41.0 °F 93% 29.71 in 6.2 mi NW 10.4 mph - N/A   Partly Cloudy
4:30 AM 42.8 °F 36.6 °F 41.0 °F 93% 29.71 in 6.2 mi NNW 11.5 mph - N/A   Partly Cloudy
5:00 AM 41.0 °F 34.3 °F 41.0 °F 100% 29.71 in - NNW 11.5 mph - N/A   Clear
5:30 AM 41.0 °F 35.2 °F 41.0 °F 100% 29.71 in - NNW 9.2 mph - N/A   Clear
6:00 AM 40 °F - 40 °F 100% 29.77 in 0 mi NNW 8.9 mph - - Fog Partial Fog
6:00 AM 41.0 °F 34.3 °F 41.0 °F 100% 29.74 in 0.5 mi NNW 11.5 mph - N/A Fog Fog
6:30 AM 39.2 °F 31.2 °F 39.2 °F 100% 29.74 in 0.6 mi NNW 13.8 mph - N/A Fog Fog
7:00 AM 39.2 °F 31.6 °F 39.2 °F 100% 29.74 in 5.0 mi NNW 12.7 mph - N/A Fog Fog
7:30 AM 39.2 °F 31.6 °F 39.2 °F 100% 29.77 in 6.2 mi NNW 12.7 mph - N/A   Partly Cloudy
8:00 AM 41.0 °F 33.9 °F 41.0 °F 100% 29.77 in 6.2 mi NNW 12.7 mph - N/A   Partly Cloudy
8:30 AM 41.0 °F 33.9 °F 41.0 °F 100% 29.80 in 6.2 mi NNW 12.7 mph - N/A   Partly Cloudy
9:00 AM 41.0 °F 33.5 °F 41.0 °F 100% 29.80 in 6.2 mi NNW 13.8 mph - N/A   Scattered Clouds
9:30 AM 42.8 °F 36.6 °F 41.0 °F 93% 29.80 in 6.2 mi NNW 11.5 mph - N/A   Partly Cloudy
10:00 AM 42.8 °F 36.6 °F 42.8 °F 100% 29.80 in 6.2 mi NW 11.5 mph - N/A   Partly Cloudy
10:30 AM 44.6 °F 38.8 °F 42.8 °F 93% 29.80 in 6.2 mi NW 11.5 mph - N/A   Mostly Cloudy
11:00 AM 44.6 °F 38.8 °F 42.8 °F 93% 29.80 in 6.2 mi NW 11.5 mph - N/A   Mostly Cloudy
11:30 AM 44.6 °F 38.4 °F 42.8 °F 93% 29.83 in 6.2 mi NW 12.7 mph - N/A   Scattered Clouds
12:00 PM 45 °F - 43 °F 89% 29.85 in 19 mi NNW 17.9 mph - -   Partly Cloudy
12:00 PM 44.6 °F 37.2 °F 42.8 °F 93% 29.83 in 6.2 mi NNW 17.3 mph - N/A   Mostly Cloudy
12:30 PM 46.4 °F 40.7 °F 42.8 °F 87% 29.83 in 6.2 mi NNW 12.7 mph - N/A   Scattered Clouds
1:00 PM 48.2 °F - 42.8 °F 82% 29.83 in 6.2 mi NNW 17.3 mph - N/A   Scattered Clouds
1:30 PM 48.2 °F - 42.8 °F 82% 29.83 in 6.2 mi NNW 13.8 mph - N/A   Scattered Clouds
2:00 PM 50.0 °F - 42.8 °F 76% 29.83 in 6.2 mi NNW 13.8 mph - N/A   Mostly Cloudy
2:30 PM 48.2 °F - 42.8 °F 82% 29.83 in 6.2 mi NNW 11.5 mph - N/A   Mostly Cloudy
3:00 PM 50.0 °F - 42.8 °F 76% 29.83 in 6.2 mi North 13.8 mph - N/A   Scattered Clouds
3:30 PM 48.2 °F - 42.8 °F 82% 29.83 in 6.2 mi NNW 17.3 mph - N/A   Scattered Clouds
4:00 PM 48.2 °F - 41.0 °F 76% 29.83 in 6.2 mi NNW 5.8 mph - N/A   Partly Cloudy
4:30 PM 48.2 °F - 42.8 °F 82% 29.83 in 6.2 mi NNW 10.4 mph - N/A   Scattered Clouds
5:00 PM 46.4 °F 42.4 °F 42.8 °F 87% 29.86 in 6.2 mi NW 8.1 mph - N/A   Mostly Cloudy
5:30 PM 46.4 °F - 42.8 °F 87% 29.86 in 6.2 mi West 2.3 mph - N/A   Mostly Cloudy
6:00 PM 46.4 °F 42.9 °F 42.8 °F 87% 29.86 in 6.2 mi NW 6.9 mph - N/A   Mostly Cloudy
6:30 PM 46.4 °F 41.9 °F 42.8 °F 87% 29.86 in 6.2 mi North 9.2 mph - N/A   Scattered Clouds
7:00 PM 44.6 °F 39.2 °F 42.8 °F 93% 29.89 in 6.2 mi NNW 10.4 mph - N/A   Scattered Clouds
7:30 PM 46.4 °F 41.9 °F 42.8 °F 87% 29.89 in 6.2 mi NNW 9.2 mph - N/A   Scattered Clouds
8:00 PM 46.4 °F 40.7 °F 44.6 °F 93% 29.89 in 6.2 mi NNW 12.7 mph - N/A   Scattered Clouds
8:30 PM 46.4 °F 41.1 °F 44.6 °F 93% 29.89 in 6.2 mi NNW 11.5 mph - N/A   Mostly Cloudy
9:00 PM 46.4 °F 41.5 °F 42.8 °F 87% 29.89 in 6.2 mi NNW 10.4 mph - N/A   Mostly Cloudy
9:30 PM 46.4 °F 41.9 °F 42.8 °F 87% 29.89 in 6.2 mi NNW 9.2 mph - N/A   Mostly Cloudy
10:00 PM 44.6 °F 40.7 °F 42.8 °F 93% 29.89 in 6.2 mi NW 6.9 mph - N/A   Mostly Cloudy
10:30 PM 44.6 °F 40.7 °F 42.8 °F 93% 29.89 in 6.2 mi NW 6.9 mph - N/A   Mostly Cloudy
11:00 PM 42.8 °F 37.0 °F 41.0 °F 93% 29.89 in 6.2 mi NNW 10.4 mph - N/A   Scattered Clouds
11:30 PM 41.0 °F 36.4 °F 39.2 °F 93% 29.89 in 6.2 mi NW 6.9 mph - N/A   Partly Cloudy